Regional Weather Roundup
Issued by NWS

Home | Current Version | Previous Version | Text Only | Print | Product List | Glossary Off
Versions: 1 2 3 4 5 6 7 8 9 10 11 12 13 14 15 16 17 18 19 20 21 22 23 24 25 26 27 28 29 30 31 32 33 34 35 36 37 38 39 40 41 42 43 44 45 46 47 48 49 50

000
ASUS43 KFSD 311402
RWRSD

WEATHER ROUNDUP FOR SOUTH DAKOTA
NATIONAL WEATHER SERVICE SIOUX FALLS SD
900 AM CDT THU JUL 31 2014

NOTE: "FAIR" INDICATES FEW OR NO CLOUDS BELOW 12,000 FEET WITH NO
SIGNIFICANT WEATHER AND/OR OBSTRUCTIONS TO VISIBILITY.


SDZ001>005-009-010-012>017-311500-
NORTHWEST AND NORTH CENTRAL SOUTH DAKOTA

CITY           SKY/WX    TMP DP  RH WIND       PRES   REMARKS
BUFFALO          N/A     63  55  75 SW5       30.11F
FAITH            N/A     68  55  63 N6        30.14S
MOBRIDGE       SUNNY     67  59  75 SE8       30.08F
$$

SDZ012>016-024>037-041>051-057-063-072>074-311500-
SOUTHWEST AND SOUTH CENTRAL SOUTH DAKOTA

CITY           SKY/WX    TMP DP  RH WIND       PRES   REMARKS
RAPID CTY ARPT SUNNY     69  51  52 NW6       30.17S
PIERRE         SUNNY     69  57  65 NE8       30.09R
CUSTER         SUNNY     65  43  44 N3        30.29S
ELLSWORTH AFB  SUNNY     68  51  55 W3        30.17S
PHILIP         SUNNY     67  56  67 W6        30.12S
PINE RIDGE     SUNNY     60  53  77 CALM      30.19R
WINNER         FAIR      65  55  70 NW8       30.08S
$$

SDZ004>011-016>023-039-040-311500-
NORTHEAST SOUTH DAKOTA

CITY           SKY/WX    TMP DP  RH WIND       PRES   REMARKS
ABERDEEN       MOSUNNY   70  56  61 W5        30.09R
WATERTOWN      SUNNY     65  57  75 CALM      30.09S
SISSETON         N/A     71  63  75 CALM      30.06S
$$

SDZ017-020-022-023-036>040-048>070-311500-
SOUTHEAST SOUTH DAKOTA

CITY           SKY/WX    TMP DP  RH WIND       PRES   REMARKS
SIOUX FALLS    PTSUNNY   68  58  70 E5        30.09S
HURON          CLOUDY    66  57  72 CALM      30.08R
CHAMBERLAIN    SUNNY     71  58  64 SE6       30.07R
MITCHELL       CLOUDY    69  62  78 VRB3      30.08R
YANKTON        PTSUNNY   63  59  88 N5        30.09S
$$

ABBREVIATIONS USED IN REMARKS
   TC - TEMPERATURE IN CELSIUS
  WCI - WIND CHILL INDEX
   HX - HEAT INDEX
  VSB - VISIBILITY




USA.gov is the U.S. government's official web portal to all federal, state and local government web resources and services.